Change the Weather History Date:

Friday, February 1, 2013

  Actual Average Record
Temperature  
Mean Temperature 24 °F -  
Max Temperature 35 °F 35 °F 46 °F (2005)
Min Temperature 12 °F 14 °F -25 °F (2011)
Degree Days  
Heating Degree Days 42    
Moisture  
Dew Point 25 °F    
Average Humidity 80    
Maximum Humidity 87    
Minimum Humidity 71    
Precipitation  
Precipitation 0.01 in - - ()
Sea Level Pressure  
Sea Level Pressure 30.01 in    
Wind  
Wind Speed 11 mph (WNW)    
Max Wind Speed 18 mph    
Max Gust Speed 28 mph    
Visibility 8 miles    
Events Snow    
Averages and records for this station are not official NWS values.
T = Trace of Precipitation, MM = Missing Value Source: NWS Daily Summary

Daily Weather History Graph

Daily Weather History Graph

Search for Another Location

Airport or City:

Trip Planner

Search our weather history database for the weather conditions in past years. The results will help you decide how hot, cold, wet, or windy it might be!

Date:

Astronomy

Feb. 01, 2013 Rise Set
Actual Time 7:19 AM MST 5:02 PM MST
Civil Twilight 6:47 AM MST 5:34 PM MST
Nautical Twilight 6:11 AM MST 6:10 PM MST
Astronomical Twilight 5:36 AM MST 6:45 PM MST
Moon 11:37 PM MST (2/1) 9:31 AM MST (2/1)
Length of Visible Light 10h 46m
Length of Day
9h 42m
Waning Gibbous, 69% of the Moon is Illuminated
Feb 1
Waning Gibbous
Feb 3
Last Quarter
Feb 10
New
Feb 17
First Quarter
Feb 25
Full

Hourly Weather History & Observations

Time (MST) Temp. Windchill Dew Point Humidity Pressure Visibility Wind Dir Wind Speed Gust Speed Precip Events Conditions
12:51 AM 19.0 °F 12.3 °F 10.9 °F 71% 30.11 in 10.0 mi WSW 4.6 mph - N/A   Mostly Cloudy
1:51 AM 14.0 °F - 7.0 °F 74% 30.11 in 10.0 mi Calm Calm - N/A   Mostly Cloudy
2:51 AM 12.0 °F 4.1 °F 6.1 °F 77% 30.09 in 10.0 mi SSE 4.6 mph - N/A   Clear
3:51 AM 21.9 °F 10.4 °F 15.1 °F 75% 30.03 in 10.0 mi WSW 11.5 mph - N/A   Mostly Cloudy
4:51 AM 19.9 °F 12.1 °F 14.0 °F 78% 30.02 in 10.0 mi WNW 5.8 mph - N/A   Scattered Clouds
5:51 AM 23.0 °F 12.4 °F 17.1 °F 78% 30.00 in 10.0 mi West 10.4 mph - N/A   Partly Cloudy
6:51 AM 28.0 °F 17.5 °F 21.0 °F 75% 29.99 in 10.0 mi West 12.7 mph - N/A   Partly Cloudy
7:51 AM 24.1 °F 17.0 °F 18.0 °F 77% 30.01 in 10.0 mi NW 5.8 mph - N/A   Clear
8:51 AM 26.1 °F 17.6 °F 19.9 °F 78% 30.03 in 10.0 mi WNW 8.1 mph - N/A   Mostly Cloudy
9:09 AM 28.4 °F 17.0 °F 21.2 °F 74% 29.91 in 10.0 mi WNW 15.0 mph - N/A   Overcast
9:21 AM 28.4 °F 17.0 °F 21.2 °F 74% 29.92 in 10.0 mi WNW 15.0 mph - N/A   Overcast
9:51 AM 28.0 °F 17.5 °F 21.9 °F 78% 30.04 in 9.0 mi WNW 12.7 mph 23.0 mph 0.00 in Snow Light Snow
10:34 AM 30.2 °F 20.2 °F 23.0 °F 75% 29.93 in 10.0 mi WNW 12.7 mph - 0.00 in   Mostly Cloudy
10:51 AM 30.9 °F 19.8 °F 23.0 °F 72% 30.04 in 10.0 mi NW 16.1 mph - 0.00 in   Scattered Clouds
11:35 AM 32.0 °F 22.1 °F 24.8 °F 75% 29.94 in 9.0 mi WNW 13.8 mph 24.2 mph 0.00 in Snow Light Snow
11:51 AM 32.0 °F 21.6 °F 25.0 °F 75% 30.04 in 9.0 mi WNW 15.0 mph - 0.00 in Snow Light Snow
12:10 PM 32.0 °F 22.5 °F 26.6 °F 80% 29.93 in 8.0 mi WNW 12.7 mph - 0.00 in Snow Light Snow
12:18 PM 32.0 °F 22.1 °F 26.6 °F 80% 29.93 in 9.0 mi WNW 13.8 mph - 0.00 in Snow Light Snow
12:51 PM 33.1 °F 23.4 °F 27.0 °F 78% 30.03 in 3.0 mi WNW 13.8 mph - 0.00 in Snow Light Snow
12:56 PM 33.8 °F 25.3 °F 26.6 °F 75% 29.93 in 2.0 mi WNW 11.5 mph - 0.00 in Snow Light Snow
1:05 PM 33.8 °F 24.8 °F 28.4 °F 81% 29.93 in 8.0 mi WNW 12.7 mph - 0.00 in Snow Light Snow
1:28 PM 33.8 °F 24.3 °F 28.4 °F 81% 29.93 in 1.8 mi WNW 13.8 mph - 0.00 in Snow Light Snow
1:44 PM 33.8 °F 24.3 °F 28.4 °F 81% 29.94 in 4.0 mi NW 13.8 mph - 0.00 in Snow Light Snow
1:51 PM 33.1 °F 23.4 °F 28.9 °F 85% 30.04 in 8.0 mi WNW 13.8 mph - 0.01 in Snow Light Snow
2:11 PM 33.8 °F 24.8 °F 28.4 °F 81% 29.94 in 10.0 mi WNW 12.7 mph - 0.00 in   Overcast
2:51 PM 35.1 °F 25.5 °F 30.0 °F 82% 30.05 in 10.0 mi WNW 15.0 mph - 0.00 in Snow Light Snow
2:59 PM 35.6 °F 26.2 °F 30.2 °F 81% 29.95 in 9.0 mi West 15.0 mph - 0.00 in Snow Light Snow
3:31 PM 35.6 °F 26.2 °F 30.2 °F 81% 29.96 in 10.0 mi WNW 15.0 mph - 0.00 in   Overcast
3:51 PM 35.1 °F 26.4 °F 30.0 °F 82% 30.04 in 10.0 mi WNW 12.7 mph - 0.00 in   Overcast
4:13 PM 35.6 °F 25.9 °F 30.2 °F 81% 29.97 in 10.0 mi WNW 16.1 mph - N/A   Overcast
4:51 PM 34.0 °F 24.6 °F 30.0 °F 85% 30.06 in 10.0 mi WNW 13.8 mph - 0.00 in   Overcast
5:51 PM 34.0 °F 24.2 °F 30.0 °F 85% 30.05 in 9.0 mi WNW 15.0 mph - 0.00 in Snow Light Snow
6:00 PM 33.8 °F 23.9 °F 30.2 °F 87% 29.97 in 7.0 mi WNW 15.0 mph - 0.00 in Snow Light Snow
6:22 PM 33.8 °F 24.3 °F 30.2 °F 87% 29.97 in 9.0 mi West 13.8 mph - 0.00 in Snow Light Snow
6:51 PM 34.0 °F 23.8 °F 30.0 °F 85% 30.05 in 10.0 mi West 16.1 mph - 0.00 in   Overcast
7:15 PM 33.8 °F 23.9 °F 30.2 °F 87% 29.99 in 10.0 mi WNW 15.0 mph - N/A   Overcast
7:51 PM 34.0 °F 23.0 °F 28.9 °F 82% 30.08 in 8.0 mi WNW 18.4 mph 25.3 mph 0.00 in Snow Light Snow
8:07 PM 33.8 °F 23.9 °F 28.4 °F 81% 30.00 in 4.0 mi WNW 15.0 mph 27.6 mph 0.00 in Snow Light Snow
8:27 PM 33.8 °F 22.8 °F 28.4 °F 81% 30.00 in 7.0 mi WNW 18.4 mph - 0.00 in Snow Light Snow
8:51 PM 33.1 °F 23.0 °F 28.9 °F 85% 30.09 in 9.0 mi WNW 15.0 mph - 0.00 in   Overcast
8:57 PM 33.8 °F 23.9 °F 28.4 °F 81% 30.01 in 10.0 mi WNW 15.0 mph 21.9 mph N/A   Overcast
9:51 PM 33.1 °F 23.0 °F 28.9 °F 85% 30.12 in 10.0 mi WNW 15.0 mph 21.9 mph 0.00 in   Overcast
10:06 PM 33.8 °F 24.3 °F 28.4 °F 81% 30.04 in 10.0 mi WNW 13.8 mph - 0.00 in Snow Light Snow
10:25 PM 33.8 °F 23.9 °F 28.4 °F 81% 30.03 in 9.0 mi WNW 15.0 mph - 0.00 in Snow Light Snow
10:51 PM 33.1 °F 23.4 °F 28.9 °F 85% 30.11 in 2.0 mi WNW 13.8 mph - 0.00 in Snow Light Snow
11:02 PM 33.8 °F 24.3 °F 28.4 °F 81% 30.04 in 4.0 mi West 13.8 mph - 0.00 in Snow Light Snow
11:30 PM 33.8 °F 24.8 °F 28.4 °F 81% 30.03 in 9.0 mi West 12.7 mph - 0.00 in Snow Light Snow
11:51 PM 33.1 °F 23.9 °F 28.0 °F 82% 30.12 in 9.0 mi West 12.7 mph - 0.00 in Snow Light Snow